Meteo pe oră la Bolshoe Kozhuhovo

Astăzi, 9 Mai, Duminică

Timp Temperatura Precipitaţii Vânt Presiune Umiditate
00:00 +11°C° 0.3 mm 6 m/s 741 mmHg 93%
01:00 +10°C° 0 mm 5 m/s 742 mmHg 93%
02:00 +9°C° 0 mm 5 m/s 742 mmHg 93%
03:00 +8°C° 0 mm 4 m/s 742 mmHg 93%
04:00 +8°C° 0 mm 4 m/s 742 mmHg 94%
05:00 +8°C° 0 mm 4 m/s 743 mmHg 94%
06:00 +9°C° 0 mm 3 m/s 743 mmHg 94%
07:00 +8°C° 0.1 mm 4 m/s 743 mmHg 92%
08:00 +7°C° 0.1 mm 4 m/s 744 mmHg 89%
09:00 +7°C° 0.1 mm 5 m/s 744 mmHg 87%
10:00 +6°C° 0.1 mm 5 m/s 745 mmHg 89%
11:00 +4°C° 0.1 mm 6 m/s 746 mmHg 92%
12:00 +2°C° 0.1 mm 7 m/s 746 mmHg 94%
13:00 +2°C° 0 mm 7 m/s 747 mmHg 95%
14:00 +2°C° 0 mm 7 m/s 748 mmHg 95%
15:00 +2°C° 0 mm 7 m/s 749 mmHg 95%
16:00 +3°C° 0 mm 7 m/s 750 mmHg 94%
17:00 +3°C° 0 mm 7 m/s 750 mmHg 93%
18:00 +4°C° 0 mm 6 m/s 751 mmHg 91%
19:00 +3°C° 0 mm 6 m/s 752 mmHg 90%
20:00 +3°C° 0 mm 5 m/s 752 mmHg 89%
21:00 +4°C° 0 mm 4 m/s 753 mmHg 88%
22:00 +3°C° 0 mm 4 m/s 753 mmHg 90%
23:00 +3°C° 0 mm 3 m/s 754 mmHg 92%

Mâine, 10 Mai, Luni

Timp Temperatura Precipitaţii Vânt Presiune Umiditate
00:00 +2°C° 0 mm 3 m/s 754 mmHg 94%
01:00 +2°C° 0 mm 3 m/s 755 mmHg 93%
02:00 +1°C° 0 mm 4 m/s 755 mmHg 92%
03:00 +1°C° 0 mm 4 m/s 756 mmHg 91%
04:00 +1°C° 0 mm 4 m/s 756 mmHg 89%
05:00 +2°C° 0 mm 5 m/s 757 mmHg 86%
06:00 +2°C° 0 mm 5 m/s 757 mmHg 84%
07:00 +5°C° 0 mm 5 m/s 758 mmHg 75%
08:00 +5°C° 0 mm 6 m/s 758 mmHg 66%
09:00 +8°C° 0 mm 7 m/s 758 mmHg 57%
10:00 +9°C° 0 mm 7 m/s 758 mmHg 54%
11:00 +10°C° 0 mm 7 m/s 758 mmHg 50%
12:00 +11°C° 0 mm 7 m/s 759 mmHg 47%
13:00 +12°C° 0 mm 7 m/s 759 mmHg 46%
14:00 +12°C° 0 mm 7 m/s 759 mmHg 46%
15:00 +14°C° 0 mm 7 m/s 758 mmHg 45%
16:00 +13°C° 0 mm 6 m/s 759 mmHg 49%
17:00 +13°C° 0 mm 6 m/s 759 mmHg 54%
18:00 +12°C° 0 mm 5 m/s 759 mmHg 58%
19:00 +10°C° 0 mm 5 m/s 759 mmHg 63%
20:00 +8°C° 0 mm 4 m/s 759 mmHg 68%
21:00 +6°C° 0 mm 4 m/s 760 mmHg 73%
22:00 +6°C° 0 mm 4 m/s 760 mmHg 76%
23:00 +5°C° 0 mm 4 m/s 760 mmHg 79%

Poimâine, 11 Mai, Marţi

Timp Temperatura Precipitaţii Vânt Presiune Umiditate
00:00 +5°C° 0 mm 4 m/s 760 mmHg 82%
01:00 +5°C° 0 mm 5 m/s 760 mmHg 84%
02:00 +3°C° 0 mm 5 m/s 760 mmHg 86%
03:00 +3°C° 0 mm 5 m/s 760 mmHg 88%
04:00 +3°C° 0 mm 5 m/s 760 mmHg 86%
05:00 +4°C° 0 mm 6 m/s 760 mmHg 85%
06:00 +4°C° 0 mm 6 m/s 760 mmHg 84%
07:00 +7°C° 0 mm 6 m/s 760 mmHg 78%
08:00 +8°C° 0 mm 7 m/s 760 mmHg 72%
09:00 +10°C° 0 mm 7 m/s 760 mmHg 66%
10:00 +11°C° 0 mm 7 m/s 760 mmHg 66%
11:00 +13°C° 0 mm 6 m/s 760 mmHg 67%
12:00 +14°C° 0 mm 6 m/s 760 mmHg 67%
13:00 +15°C° 0 mm 6 m/s 760 mmHg 66%
14:00 +16°C° 0 mm 6 m/s 759 mmHg 65%
15:00 +17°C° 0 mm 6 m/s 759 mmHg 65%
16:00 +17°C° 0 mm 6 m/s 759 mmHg 68%
17:00 +17°C° 0 mm 5 m/s 759 mmHg 71%
18:00 +16°C° 0 mm 5 m/s 759 mmHg 74%
19:00 +15°C° 0 mm 5 m/s 759 mmHg 79%
20:00 +14°C° 0 mm 5 m/s 759 mmHg 84%
21:00 +12°C° 0 mm 4 m/s 759 mmHg 89%
22:00 +12°C° 0 mm 4 m/s 759 mmHg 90%
23:00 +11°C° 0 mm 4 m/s 759 mmHg 92%

12 Mai, Miercuri

Timp Temperatura Precipitaţii Vânt Presiune Umiditate
00:00 +11°C° 0 mm 4 m/s 759 mmHg 93%
01:00 +11°C° 0 mm 4 m/s 758 mmHg 94%
02:00 +11°C° 0 mm 4 m/s 758 mmHg 95%
03:00 +10°C° 0 mm 4 m/s 758 mmHg 96%
04:00 +11°C° 0 mm 4 m/s 757 mmHg 95%
05:00 +11°C° 0 mm 4 m/s 757 mmHg 95%
06:00 +11°C° 0 mm 4 m/s 757 mmHg 94%
07:00 +12°C° 0.2 mm 5 m/s 757 mmHg 93%
08:00 +12°C° 0.2 mm 5 m/s 757 mmHg 92%
09:00 +13°C° 0.2 mm 6 m/s 757 mmHg 91%
10:00 +14°C° 0.2 mm 6 m/s 757 mmHg 89%
11:00 +14°C° 0.2 mm 5 m/s 757 mmHg 87%
12:00 +15°C° 0.2 mm 5 m/s 757 mmHg 86%
13:00 +17°C° 0.1 mm 4 m/s 757 mmHg 83%
14:00 +17°C° 0.1 mm 4 m/s 757 mmHg 80%
15:00 +18°C° 0.1 mm 3 m/s 757 mmHg 77%
16:00 +18°C° 0 mm 2 m/s 757 mmHg 79%
17:00 +18°C° 0 mm 2 m/s 757 mmHg 80%
18:00 +18°C° 0 mm 2 m/s 757 mmHg 81%
19:00 +17°C° 0 mm 2 m/s 757 mmHg 83%
20:00 +16°C° 0 mm 3 m/s 756 mmHg 85%
21:00 +16°C° 0 mm 3 m/s 756 mmHg 86%
22:00 +16°C° 0 mm 3 m/s 756 mmHg 84%
23:00 +15°C° 0 mm 4 m/s 756 mmHg 83%

13 Mai, Joi

Timp Temperatura Precipitaţii Vânt Presiune Umiditate
00:00 +15°C° 0 mm 5 m/s 756 mmHg 81%
01:00 +14°C° 0 mm 5 m/s 756 mmHg 82%
02:00 +14°C° 0 mm 5 m/s 755 mmHg 83%
03:00 +14°C° 0 mm 5 m/s 755 mmHg 83%
04:00 +14°C° 0.1 mm 5 m/s 755 mmHg 85%
05:00 +14°C° 0.1 mm 5 m/s 755 mmHg 86%
06:00 +14°C° 0.1 mm 5 m/s 754 mmHg 87%
07:00 +15°C° 0 mm 5 m/s 754 mmHg 82%
08:00 +15°C° 0 mm 6 m/s 754 mmHg 77%
09:00 +16°C° 0 mm 6 m/s 754 mmHg 72%
10:00 +16°C° 0.3 mm 6 m/s 754 mmHg 77%
11:00 +15°C° 0.3 mm 5 m/s 754 mmHg 81%
12:00 +15°C° 0.3 mm 5 m/s 754 mmHg 86%
13:00 +15°C° 0.1 mm 5 m/s 754 mmHg 86%
14:00 +15°C° 0.1 mm 5 m/s 754 mmHg 87%
15:00 +16°C° 0.1 mm 6 m/s 754 mmHg 87%
16:00 +16°C° 0 mm 5 m/s 754 mmHg 86%
17:00 +18°C° 0 mm 4 m/s 754 mmHg 85%
18:00 +18°C° 0 mm 3 m/s 754 mmHg 84%
19:00 +17°C° 0 mm 3 m/s 754 mmHg 87%
20:00 +16°C° 0 mm 3 m/s 754 mmHg 89%
21:00 +14°C° 0 mm 3 m/s 754 mmHg 92%
22:00 +14°C° 0 mm 3 m/s 754 mmHg 93%
23:00 +14°C° 0 mm 3 m/s 754 mmHg 93%

14 Mai, Vineri

Timp Temperatura Precipitaţii Vânt Presiune Umiditate
00:00 +14°C° 0 mm 3 m/s 754 mmHg 93%
01:00 +13°C° 0 mm 3 m/s 753 mmHg 93%
02:00 +13°C° 0 mm 3 m/s 753 mmHg 93%
03:00 +13°C° 0 mm 3 m/s 753 mmHg 93%
04:00 +13°C° 0 mm 3 m/s 753 mmHg 93%
05:00 +14°C° 0 mm 3 m/s 753 mmHg 93%
06:00 +14°C° 0 mm 3 m/s 753 mmHg 93%
07:00 +17°C° 0 mm 3 m/s 753 mmHg 88%
08:00 +18°C° 0 mm 4 m/s 753 mmHg 82%
09:00 +20°C° 0 mm 5 m/s 752 mmHg 77%
10:00 +21°C° 0 mm 5 m/s 752 mmHg 73%
11:00 +22°C° 0 mm 6 m/s 752 mmHg 68%
12:00 +24°C° 0 mm 6 m/s 752 mmHg 64%
13:00 +24°C° 0 mm 6 m/s 752 mmHg 64%
14:00 +24°C° 0 mm 6 m/s 751 mmHg 65%
15:00 +26°C° 0 mm 6 m/s 751 mmHg 65%
16:00 +24°C° 0 mm 6 m/s 751 mmHg 68%
17:00 +23°C° 0 mm 5 m/s 751 mmHg 71%
18:00 +23°C° 0 mm 5 m/s 750 mmHg 74%
19:00 +21°C° 0.8 mm 4 m/s 750 mmHg 78%
20:00 +20°C° 0.8 mm 4 m/s 750 mmHg 82%
21:00 +19°C° 0.8 mm 3 m/s 750 mmHg 87%
22:00 +18°C° 0.3 mm 3 m/s 750 mmHg 89%
23:00 +18°C° 0.3 mm 3 m/s 750 mmHg 91%
Arată mai mult

Formular de consimțământ

Meteoprog și furnizorii noștri de servicii pot stoca și accesa date personale, precum cookies, identificatori de dispozitiv sau alte tehnologii similare pe dispozitivul dumneavoastră și procesa astfel de date pentru a personaliza conținutul și reclamele, dar și pentru a oferi caracteristici de social media și pentru a analiza traficul.

  • Stocarea și/sau accesarea informațiilor pe dispozitivul dumneavoastră

    Cookies, identificatori de dispozitiv sau alte informații pot fi stocate sau accesate pe dispozitiv în scopurile indicate mai sus.

  • Reclame și conținut personalizat, evaluarea reclamelor și a conținutului, informații despre audiențe și dezvoltarea produselor

    Reclamele și conținutul pot fi personalizate pe baza unui profil. Pot fi adăugate date suplimentare pentru a personaliza mai bine reclamele și conținutul. Performanța reclamelor și conținutului poate fi măsurată. Pot fi obținute informații despre utilizatorii care au văzut reclamele și conținutul. Aceste date pot fi utilizate pentru a dezvolta sau îmbunătăți experiența utilizatorilor, sistemele și software-ul.

Dând clic pe ‘Sunt de acord’, permiteți utilizarea cookie-urilor menționate, a identificatorilor de dispozitiv, balizelor web sau altor tehnologii similare. Setările pot fi modificate din browser-ul dispozitivului dumneavoastră.

În anumite scopuri, interesele legitime pot prima asupra consimțământului. Puteți citi mai multe informații în acest sens în Politica privind Confidențialitatea Datelor și Cookie.